Temp
-9 -9 -9 -10 -10 -9 -9 -9 -9 -9 -9 -9 -10 -10 -10 -10 -11 -11 -11 -11 -12 -12 -12 -13 -13 -14 -14 -14 -14 -14 -14 -14 -15 -16 -15 -16 -15 -15 -15 -15 -15 -15 -16
-9 -9 -10 -10 -9 -9 -9 -9 -9 -9 -9 -10 -10 -10 -10 -10 -11 -11 -11 -12 -12 -12 -13 -13 -13 -14 -14 -14 -14 -15 -15 -15 -15 -16 -16 -16 -15 -15 -16 -15 -15 -16 -16
-9 -9 -9 -9 -9 -9 -9 -9 -9 -9 -9 -10 -10 -10 -10 -10 -11 -11 -12 -12 -13 -13 -13 -14 -14 -14 -14 -14 -15 -15 -15 -16 -16 -16 -16 -16 -16 -16 -15 -16 -16 -17 -17
-9 -9 -9 -9 -9 -9 -9 -9 -9 -9 -10 -10 -10 -10 -10 -11 -11 -12 -12 -13 -13 -14 -14 -14 -14 -14 -15 -15 -15 -15 -16 -16 -16 -16 -16 -16 -16 -16 -16 -16 -17 -18 -19
-10 -9 -9 -9 -9 -9 -9 -9 -10 -10 -10 -10 -11 -11 -11 -11 -12 -12 -12 -13 -13 -14 -14 -14 -14 -15 -15 -15 -15 -15 -15 -15 -16 -16 -16 -16 -16 -16 -16 -17 -18 -19 -20
-10 -9 -9 -9 -10 -10 -9 -10 -10 -11 -11 -11 -11 -11 -11 -11 -12 -12 -13 -13 -14 -14 -15 -14 -15 -15 -15 -15 -15 -14 -15 -15 -16 -16 -16 -16 -16 -16 -16 -17 -18 -19 -20
-10 -10 -10 -10 -10 -10 -10 -11 -11 -11 -11 -11 -11 -11 -11 -12 -12 -12 -13 -14 -14 -15 -15 -15 -15 -15 -15 -15 -15 -15 -15 -16 -16 -16 -16 -16 -16 -16 -17 -17 -18 -19 -19
-10 -10 -10 -10 -10 -10 -11 -11 -12 -12 -12 -11 -12 -11 -11 -13 -13 -13 -14 -14 -15 -15 -15 -15 -15 -15 -15 -15 -15 -16 -15 -15 -16 -16 -16 -16 -16 -16 -17 -17 -17 -18 -18
-11 -11 -11 -10 -11 -11 -12 -12 -12 -12 -12 -12 -12 -12 -12 -13 -13 -13 -13 -14 -15 -15 -15 -15 -15 -15 -15 -15 -15 -16 -16 -16 -16 -16 -16 -17 -17 -17 -17 -17 -17 -17 -18
-11 -11 -11 -11 -11 -12 -12 -12 -12 -12 -12 -12 -12 -12 -12 -13 -13 -13 -13 -14 -15 -15 -15 -14 -14 -14 -14 -15 -15 -15 -15 -15 -15 -16 -16 -17 -17 -17 -17 -17 -17 -17 -18
-11 -11 -11 -12 -12 -12 -12 -12 -13 -12 -12 -12 -12 -12 -12 -13 -13 -13 -13 -13 -14 -14 -14 -14 -14 -14 -14 -15 -15 -15 -15 -15 -15 -16 -16 -17 -17 -17 -17 -17 -17 -17 -18
-12 -12 -12 -12 -12 -12 -13 -13 -13 -12 -12 -12 -12 -12 -12 -13 -13 -13 -13 -13 -13 -14 -13 -14 -14 -14 -14 -14 -15 -15 -15 -15 -15 -16 -16 -17 -16 -16 -16 -17 -17 -17 -17
-13 -13 -12 -12 -12 -13 -13 -13 -13 -12 -13 -12 -13 -13 -12 -13 -13 -13 -13 -14 -14 -14 -14 -14 -14 -14 -14 -14 -15 -15 -15 -15 -15 -16 -16 -16 -16 -16 -16 -16 -16 -17 -17
-13 -13 -13 -13 -13 -14 -14 -13 -13 -13 -13 -13 -13 -13 -13 -13 -13 -13 -13 -14 -14 -14 -14 -14 -14 -14 -15 -15 -14 -15 -15 -15 -15 -15 -16 -16 -16 -16 -16 -16 -16 -16 -17
-14 -14 -13 -13 -13 -13 -13 -13 -13 -13 -13 -13 -13 -13 -13 -13 -13 -13 -14 -14 -14 -14 -14 -14 -14 -15 -15 -15 -15 -15 -15 -15 -15 -16 -16 -16 -16 -16 -16 -16 -16 -16 -17
-14 -14 -14 -13 -13 -13 -13 -13 -13 -13 -13 -13 -13 -13 -13 -13 -13 -13 -13 -14 -14 -14 -14 -14 -15 -15 -15 -15 -15 -15 -15 -15 -15 -15 -16 -16 -16 -16 -16 -16 -16 -16 -16
-14 -14 -14 -14 -14 -14 -13 -13 -13 -13 -13 -13 -13 -13 -13 -13 -13 -13 -13 -14 -14 -14 -14 -15 -15 -15 -15 -15 -16 -15 -15 -15 -15 -15 -15 -15 -15 -16 -16 -16 -16 -16 -16
-14 -14 -14 -14 -14 -14 -14 -14 -13 -13 -13 -13 -13 -13 -13 -13 -13 -13 -13 -13 -14 -14 -14 -15 -15 -15 -15 -15 -15 -15 -16 -16 -16 -16 -15 -15 -15 -15 -16 -16 -16 -16 -16
-14 -14 -14 -14 -14 -14 -15 -15 -14 -14 -14 -14 -13 -13 -13 -14 -14 -14 -14 -14 -14 -14 -14 -15 -15 -15 -15 -15 -15 -15 -15 -16 -16 -16 -16 -15 -15 -15 -15 -16 -16 -16 -16
-14 -14 -15 -15 -15 -15 -15 -15 -15 -14 -14 -14 -14 -14 -14 -14 -14 -14 -14 -14 -14 -14 -14 -15 -15 -15 -15 -15 -15 -16 -16 -16 -16 -16 -16 -16 -15 -16 -16 -16 -16 -16 -17
-14 -14 -15 -15 -15 -16 -16 -15 -15 -15 -15 -15 -14 -14 -14 -14 -14 -14 -14 -14 -15 -15 -15 -15 -15 -15 -15 -15 -15 -15 -16 -16 -16 -16 -16 -16 -16 -16 -16 -16 -16 -16 -16
-15 -15 -16 -16 -16 -16 -16 -15 -15 -15 -15 -15 -15 -15 -15 -15 -15 -15 -15 -15 -15 -15 -15 -15 -15 -15 -15 -15 -15 -15 -15 -16 -16 -16 -16 -16 -16 -16 -16 -16 -16 -16 -16
-15 -15 -16 -16 -16 -16 -16 -16 -15 -15 -15 -15 -15 -15 -15 -15 -15 -15 -15 -15 -15 -15 -15 -15 -15 -16 -16 -16 -16 -16 -16 -16 -16 -16 -16 -17 -17 -17 -17 -17 -17 -16 -16
-16 -15 -15 -16 -16 -16 -16 -16 -16 -16 -16 -16 -16 -16 -16 -16 -15 -15 -15 -15 -15 -15 -15 -15 -15 -15 -16 -16 -16 -16 -16 -17 -17 -17 -17 -17 -17 -17 -17 -17 -17 -17 -17
-17 -16 -16 -16 -16 -16 -16 -16 -16 -16 -16 -16 -16 -16 -16 -16 -15 -15 -15 -15 -15 -15 -15 -15 -16 -16 -16 -16 -17 -17 -18 -18 -18 -18 -18 -18 -18 -18 -18 -18 -17 -17 -18
-17 -16 -16 -16 -16 -16 -16 -16 -16 -16 -16 -16 -16 -16 -16 -15 -16 -16 -16 -16 -16 -16 -16 -16 -16 -17 -17 -18 -19 -19 -19 -20 -20 -20 -20 -20 -20 -20 -19 -19 -19 -18 -18
Height
5822 5824 5825 5825 5826 5826 5825 5825 5822 5821 5817 5811 5809 5807 5800 5797 5791 5787 5782 5776 5772 5765 5760 5754 5746 5738 5731 5725 5719 5711 5703 5694 5685 5674 5664 5655 5644 5634 5622 5610 5599 5590 5580
5819 5821 5821 5822 5822 5823 5822 5820 5820 5815 5810 5805 5804 5798 5796 5791 5788 5783 5776 5771 5766 5760 5754 5748 5742 5736 5729 5723 5715 5706 5696 5686 5677 5668 5658 5648 5634 5621 5608 5595 5582 5569 5559
5815 5816 5817 5816 5817 5817 5815 5814 5811 5807 5804 5802 5799 5797 5792 5787 5783 5778 5773 5767 5761 5755 5750 5744 5738 5733 5726 5718 5710 5700 5689 5680 5671 5661 5650 5638 5624 5612 5597 5581 5566 5553 5542
5811 5812 5814 5814 5814 5813 5812 5811 5808 5805 5802 5800 5796 5793 5789 5785 5780 5774 5768 5762 5757 5752 5747 5742 5736 5729 5721 5713 5704 5695 5685 5677 5667 5656 5644 5631 5616 5601 5584 5571 5554 5539 5530
5807 5809 5809 5809 5809 5809 5808 5806 5803 5801 5800 5797 5794 5790 5786 5781 5775 5770 5765 5760 5755 5749 5744 5738 5732 5725 5717 5709 5700 5691 5682 5673 5662 5651 5638 5624 5610 5595 5581 5563 5544 5530 5522
5802 5803 5804 5805 5806 5806 5804 5802 5799 5798 5795 5792 5789 5786 5780 5775 5772 5766 5762 5757 5752 5745 5740 5733 5727 5720 5712 5704 5695 5687 5678 5669 5659 5647 5634 5621 5607 5593 5578 5560 5544 5532 5524
5796 5798 5799 5800 5800 5800 5798 5796 5795 5793 5790 5787 5785 5781 5776 5772 5768 5763 5759 5753 5748 5742 5736 5730 5724 5717 5710 5702 5693 5685 5676 5666 5656 5645 5633 5619 5607 5594 5580 5563 5548 5537 5529
5790 5792 5793 5794 5794 5793 5792 5791 5790 5788 5786 5784 5781 5777 5774 5769 5765 5761 5755 5750 5745 5739 5733 5728 5722 5716 5710 5703 5693 5685 5675 5665 5655 5645 5632 5619 5609 5597 5583 5570 5557 5547 5538
5785 5786 5787 5787 5788 5787 5787 5786 5786 5785 5783 5781 5778 5774 5771 5766 5762 5756 5753 5747 5742 5737 5731 5726 5721 5715 5709 5701 5694 5684 5675 5664 5653 5644 5632 5621 5611 5600 5588 5577 5566 5556 5548
5780 5781 5782 5782 5782 5782 5781 5781 5782 5781 5780 5777 5774 5771 5768 5763 5759 5755 5752 5745 5740 5734 5730 5725 5719 5713 5707 5700 5692 5684 5675 5665 5656 5646 5636 5625 5614 5604 5592 5583 5573 5564 5555
5776 5777 5778 5778 5777 5777 5777 5778 5778 5777 5775 5772 5770 5768 5764 5760 5758 5754 5749 5743 5737 5732 5727 5723 5717 5711 5705 5699 5691 5683 5674 5665 5656 5647 5638 5628 5618 5608 5597 5588 5579 5571 5564
5773 5773 5773 5773 5772 5771 5772 5772 5772 5772 5770 5768 5767 5765 5761 5758 5755 5751 5746 5741 5735 5730 5725 5720 5715 5710 5704 5697 5690 5682 5674 5666 5658 5649 5641 5632 5623 5612 5602 5593 5585 5578 5571
5766 5767 5767 5767 5766 5766 5767 5767 5767 5767 5765 5765 5763 5762 5758 5755 5751 5747 5743 5738 5734 5728 5723 5718 5714 5709 5701 5695 5688 5681 5674 5667 5660 5652 5643 5635 5627 5617 5606 5598 5591 5584 5578
5761 5762 5763 5763 5763 5763 5763 5763 5763 5762 5762 5762 5760 5758 5754 5751 5747 5743 5740 5736 5731 5726 5722 5717 5711 5706 5701 5693 5686 5680 5674 5668 5662 5654 5646 5638 5630 5621 5613 5604 5596 5589 5582
5757 5758 5759 5759 5759 5759 5759 5760 5759 5758 5758 5758 5755 5753 5751 5747 5743 5740 5737 5733 5729 5724 5719 5715 5709 5702 5695 5690 5685 5680 5674 5667 5661 5655 5648 5641 5633 5625 5618 5610 5602 5594 5587
5751 5752 5753 5755 5755 5755 5756 5755 5754 5754 5753 5752 5749 5748 5746 5743 5739 5737 5733 5730 5726 5722 5717 5712 5707 5702 5696 5690 5685 5680 5674 5667 5661 5656 5649 5643 5636 5629 5621 5614 5607 5600 5592
5745 5746 5748 5749 5749 5750 5750 5749 5748 5748 5746 5746 5744 5742 5740 5738 5734 5732 5729 5725 5722 5718 5714 5709 5705 5700 5695 5690 5684 5679 5674 5668 5663 5656 5650 5643 5636 5631 5624 5618 5611 5605 5598
5737 5739 5740 5741 5742 5743 5743 5742 5741 5740 5739 5739 5738 5736 5733 5732 5729 5727 5724 5721 5718 5714 5710 5706 5702 5698 5693 5688 5682 5677 5671 5666 5661 5656 5650 5643 5637 5631 5625 5620 5614 5608 5602
5729 5731 5732 5733 5734 5735 5735 5736 5735 5734 5733 5732 5730 5729 5727 5725 5723 5721 5718 5716 5713 5709 5706 5703 5698 5694 5689 5684 5680 5675 5670 5665 5661 5655 5650 5643 5637 5631 5625 5620 5615 5610 5605
5722 5723 5724 5726 5727 5728 5728 5729 5728 5727 5726 5725 5723 5721 5720 5718 5716 5714 5712 5709 5706 5703 5700 5698 5694 5689 5685 5681 5676 5672 5667 5662 5657 5652 5647 5642 5637 5632 5626 5620 5615 5610 5606
5715 5716 5717 5718 5720 5721 5721 5721 5721 5720 5719 5718 5717 5715 5713 5712 5710 5709 5705 5702 5699 5697 5693 5690 5687 5683 5679 5675 5671 5666 5662 5658 5653 5648 5643 5639 5634 5629 5625 5620 5615 5610 5605
5709 5710 5712 5712 5713 5714 5715 5715 5713 5712 5711 5710 5709 5707 5705 5704 5702 5701 5698 5695 5692 5689 5685 5682 5679 5676 5672 5668 5664 5660 5655 5651 5647 5643 5638 5634 5630 5625 5621 5617 5613 5608 5603
5704 5705 5706 5707 5707 5707 5707 5707 5706 5705 5704 5703 5701 5699 5698 5697 5695 5692 5689 5687 5684 5681 5677 5674 5671 5667 5663 5659 5655 5651 5647 5643 5640 5636 5632 5628 5625 5621 5617 5613 5609 5605 5601
5697 5698 5699 5700 5700 5700 5700 5699 5698 5697 5696 5694 5693 5691 5690 5689 5687 5684 5680 5678 5675 5672 5668 5665 5661 5657 5654 5650 5645 5641 5637 5634 5631 5627 5623 5620 5616 5613 5610 5607 5603 5599 5596
5690 5691 5692 5692 5692 5692 5691 5690 5689 5688 5687 5685 5684 5682 5681 5679 5676 5674 5671 5668 5665 5662 5658 5654 5650 5646 5642 5638 5634 5630 5626 5623 5619 5616 5613 5610 5606 5603 5600 5597 5594 5592 5588
5681 5682 5683 5682 5682 5682 5681 5680 5680 5679 5678 5676 5675 5673 5671 5668 5666 5664 5661 5658 5654 5650 5646 5642 5638 5633 5629 5625 5622 5618 5615 5611 5608 5605 5602 5598 5595 5593 5589 5586 5583 5580 5578
Wind_Speed
19 14 13 15 19 18 19 22 24 29 31 29 29 24 28 30 34 40 43 42 39 36 33 39 39 36 34 35 38 43 46 48 49 51 51 54 55 57 57 52 54 58 58
19 17 18 19 18 18 20 22 26 27 25 24 22 27 29 32 36 43 43 37 37 34 35 37 32 34 35 37 42 46 47 48 48 48 51 53 55 56 54 57 60 57 52
20 20 20 18 18 20 23 25 29 23 23 23 26 28 30 35 41 42 34 37 36 35 31 30 32 34 37 42 46 49 47 46 47 49 51 55 56 56 56 59 58 56 49
22 21 20 18 19 22 24 26 22 20 22 24 28 30 32 38 39 33 35 34 33 35 29 30 32 37 41 46 49 48 44 47 47 48 53 55 55 56 61 59 57 51 38
22 21 18 18 20 22 24 20 18 19 22 26 27 28 34 38 31 32 32 32 35 36 28 32 37 40 45 48 48 44 45 46 46 49 55 52 56 59 59 58 55 45 29
20 19 17 18 20 20 19 16 17 19 24 24 24 31 35 34 29 31 31 33 36 32 28 36 39 43 45 47 45 42 45 46 45 50 54 51 58 58 60 58 50 37 25
18 17 18 17 18 17 14 13 16 19 21 23 26 31 34 31 28 30 29 31 31 32 35 38 38 40 42 42 40 43 44 44 45 49 52 50 55 56 60 59 50 38 26
17 18 17 17 17 16 12 13 16 19 21 23 26 32 32 27 28 27 27 29 32 34 36 36 35 37 34 35 37 40 43 45 45 47 53 51 52 52 53 55 48 39 33
18 18 17 16 16 15 15 15 18 21 23 23 26 29 31 26 27 25 27 28 29 31 32 32 34 32 30 33 36 38 41 43 45 45 51 51 49 48 48 48 45 38 32
18 18 17 17 17 17 18 20 24 24 24 24 26 27 29 24 26 24 27 26 27 28 29 30 30 28 30 34 35 38 41 43 43 42 45 50 47 47 43 43 41 41 37
18 16 18 18 20 20 20 22 25 23 24 23 26 26 27 23 23 25 27 26 25 26 28 28 28 27 30 33 34 37 41 43 44 43 42 46 49 44 43 41 41 37 38
17 18 18 19 22 23 23 24 22 22 23 23 24 25 23 22 22 24 26 26 25 24 26 28 28 27 27 32 34 37 41 42 43 42 40 41 45 46 44 41 40 40 35
18 19 19 21 22 21 22 23 23 23 22 23 21 20 22 21 22 23 24 25 25 25 24 26 27 27 28 31 34 35 38 40 41 41 40 41 40 44 45 43 38 36 35
20 22 21 22 22 18 18 19 22 23 22 23 20 18 21 22 21 23 24 25 25 26 26 25 27 29 27 29 32 33 35 38 37 39 41 41 40 40 41 42 40 36 33
23 24 25 25 19 17 19 22 23 23 22 21 19 19 21 20 22 22 23 24 25 26 27 26 29 31 31 30 30 31 31 35 38 38 38 39 38 39 39 39 40 37 36
25 26 27 25 23 21 24 24 23 24 22 20 19 18 20 20 20 22 23 24 25 25 26 26 27 30 29 27 28 29 29 30 34 35 35 35 36 37 37 38 37 38 37
30 32 31 27 26 27 29 28 26 25 23 21 20 18 21 22 21 23 25 25 25 26 26 28 28 28 29 29 27 27 28 28 28 30 33 35 36 34 34 36 36 35 35
35 35 35 30 28 29 31 29 27 24 23 23 23 21 22 25 24 22 22 23 25 27 28 28 29 29 29 29 30 31 31 31 31 31 31 32 34 34 33 31 32 33 33
30 29 30 28 26 30 31 29 21 21 21 22 22 22 24 26 27 25 24 24 25 26 29 31 31 29 29 29 29 29 30 31 31 31 31 30 30 32 33 32 30 29 30
37 35 29 28 28 27 24 22 22 21 21 22 23 23 25 28 27 28 27 27 28 28 28 30 33 33 30 31 32 31 30 30 30 31 31 31 31 31 31 30 30 28 27
28 27 30 40 35 28 24 25 26 26 27 27 27 26 26 27 28 29 28 28 28 29 30 32 34 34 35 35 34 34 32 30 30 31 31 31 31 31 31 32 30 27 27
16 16 16 17 19 23 25 25 25 25 27 28 28 28 30 31 31 30 29 28 30 30 31 33 35 37 38 38 38 38 37 35 34 34 32 31 32 31 31 31 31 32 29
21 23 24 25 26 27 29 30 30 30 30 29 27 25 25 27 29 30 31 33 34 35 36 36 38 39 39 40 41 41 41 39 37 36 36 34 32 31 30 30 31 30 29
22 23 24 25 26 28 30 31 31 31 29 29 28 27 27 30 33 36 37 37 37 37 38 40 42 44 45 44 44 45 43 42 40 37 35 34 35 33 33 31 31 31 31
29 29 27 28 28 28 31 33 33 32 32 31 30 30 32 35 37 38 38 38 40 43 44 46 47 48 48 48 47 46 45 42 39 37 36 35 33 32 32 32 32 32 31
33 31 30 33 37 38 35 35 34 34 34 33 34 37 39 40 41 41 44 46 48 49 50 51 51 51 49 47 45 43 42 40 39 39 37 36 35 36 34 32 31 33 33
Wind_Direction
256 267 269 275 280 285 292 300 310 318 321 319 322 327 334 327 330 329 330 329 327 325 330 332 335 338 339 341 337 333 331 332 329 331 331 329 324 322 320 319 316 313 309
257 265 271 278 281 288 296 305 313 322 322 326 328 336 334 332 328 325 331 329 327 327 327 334 342 346 343 337 336 336 334 332 335 336 330 330 330 328 327 325 324 320 315
256 262 269 277 287 296 303 310 318 324 328 333 334 330 327 331 330 328 330 329 329 331 331 339 343 340 337 338 339 340 340 342 340 334 335 337 336 336 333 334 329 321 320
251 260 260 272 284 291 299 309 322 318 326 330 329 326 327 327 330 336 332 329 330 331 330 340 338 338 337 339 341 341 344 344 342 340 345 345 345 344 344 341 335 331 327
250 253 261 278 288 294 301 315 310 316 322 324 325 330 331 332 338 337 333 327 328 327 325 335 336 336 338 338 340 343 345 345 344 348 350 351 354 353 349 348 345 345 339
247 256 270 280 287 291 300 308 311 313 320 322 326 329 337 341 339 339 336 331 328 337 331 334 338 337 339 340 343 346 347 350 349 354 354 357 1 358 357 357 356 358 360
254 266 274 280 282 289 294 302 308 316 317 321 327 333 337 342 339 339 339 337 337 340 339 339 340 341 342 345 346 349 352 353 355 358 360 1 1 1 5 6 8 11 19
262 270 275 277 280 287 288 293 315 318 316 320 328 334 341 343 337 338 344 338 339 340 340 341 343 346 349 348 349 352 356 357 358 1 5 4 5 7 6 10 15 20 23
265 272 273 274 279 282 281 285 305 321 315 312 325 335 339 340 333 338 339 338 341 341 342 343 345 351 352 353 352 354 359 359 0 1 5 7 5 8 13 11 17 19 23
265 267 268 274 277 279 281 283 288 305 309 310 322 332 336 336 331 336 337 342 341 340 340 344 351 354 357 355 355 358 360 3 2 4 6 9 9 10 15 16 21 26 25
254 261 272 281 280 280 283 285 288 296 302 308 317 326 333 334 329 333 337 343 345 343 343 350 352 353 354 355 359 2 4 3 4 7 7 10 11 14 18 20 20 21 23
254 267 278 284 286 285 281 282 290 290 298 300 310 323 330 330 324 331 337 339 346 346 345 350 351 350 352 357 2 4 7 5 4 10 8 10 13 16 21 24 23 24 27
263 272 282 293 293 288 291 285 282 285 295 293 309 318 328 324 322 327 333 337 337 342 343 345 347 345 351 357 3 5 7 7 5 8 11 13 12 17 20 22 23 23 24
267 270 274 296 291 276 283 279 277 287 288 291 301 309 320 322 322 323 328 334 337 337 338 338 342 342 344 355 359 2 5 6 7 6 9 10 15 15 18 23 22 21 18
257 263 278 287 287 278 275 282 285 289 282 288 297 303 311 323 329 323 320 324 332 336 336 338 340 342 344 348 352 356 1 3 5 7 7 7 10 16 15 19 22 22 22
258 267 276 277 270 273 275 283 284 287 278 286 291 297 304 315 326 325 321 320 322 328 334 336 338 339 342 343 346 349 352 359 1 3 5 8 9 10 14 17 17 22 25
260 266 272 272 264 264 272 274 280 286 280 280 284 290 294 302 314 318 322 328 327 326 328 331 332 334 337 341 342 342 346 348 352 356 0 4 6 10 10 12 14 17 20
261 264 266 267 263 264 269 276 281 286 281 275 278 283 288 291 300 307 315 323 330 332 332 327 325 327 331 335 339 341 341 343 344 346 350 357 1 3 7 8 9 11 14
250 263 261 261 261 266 268 272 277 283 279 276 276 281 286 287 291 295 303 311 316 319 324 330 329 324 324 327 330 333 337 340 339 341 343 346 352 357 359 0 6 7 8
255 260 260 255 260 258 255 262 269 274 278 281 281 284 286 286 286 290 297 303 304 308 313 318 321 326 324 325 326 327 329 331 335 338 340 341 342 347 350 352 355 0 3
250 254 266 259 256 253 255 267 271 273 276 280 282 284 287 289 292 293 296 300 301 304 308 310 314 316 318 318 321 324 324 326 329 330 333 336 339 339 339 340 343 347 352
246 246 241 240 247 259 269 272 273 275 279 281 285 288 289 291 294 295 298 299 300 303 306 307 309 311 313 313 314 314 317 320 322 324 326 328 330 333 333 332 332 336 338
248 249 253 257 263 269 273 274 275 276 278 281 286 288 292 294 294 296 298 298 299 301 305 307 308 308 308 308 308 310 310 311 312 314 317 319 319 323 326 326 325 324 328
256 260 263 268 270 272 273 273 273 276 280 284 286 287 290 291 294 297 298 298 300 301 304 306 307 307 307 305 304 303 302 302 302 302 303 306 310 311 313 317 319 318 315
259 260 262 271 265 274 277 272 273 277 280 282 284 287 290 293 297 298 297 298 299 300 300 301 303 304 303 302 299 298 297 296 295 295 295 296 298 301 304 304 305 310 311
264 268 275 279 270 282 275 268 271 275 278 280 282 286 290 294 294 294 296 298 300 301 303 304 302 300 299 298 297 296 295 294 292 291 293 293 295 297 298 298 296 298 302